Location: Cutler
(25.6150°N, 80.3110°W)
Time: 06:05:52
(UTC-05:00)

Tiangong 2 - Pass Details

Date: 15 November 2017
Orbit: 386 x 392 km, 42.8° (Epoch: 21 November)

Event Time Altitude Azimuth Distance (km) Brightness Sun altitude
Rises 18:35:53 0° 298° (WNW) 2,266 5.8 -14.5°
Reaches altitude 10° 18:38:04 10° 289° (WNW) 1,409 4.8 -14.9°
Maximum altitude 18:41:00 35° 221° (SW) 647 2.7 -15.6°
Drops below altitude 10° 18:43:55 10° 154° (SSE) 1,400 3.8 -16.2°
Enters shadow 18:44:22 - 151° (SSE) 1,571 4.0 -16.3°
